Time,TemperatureF,DewpointF,PressureIn,WindDirection,WindDirectionDegrees,WindSpeedMPH,WindSpeedGustMPH,Humidity,HourlyPrecipIn,Conditions,Clouds,dailyrainin,SoftwareType,DateUTC
2013-01-20 00:03:00,12.3,3.7,29.95,WSW,258,8.8,15.0,68,0.00,BKN,,0.00,WeatherDisplay:10.37,2013-01-20 06:03:00,
2013-01-20 00:08:00,12.2,4.0,29.95,NW,308,8.8,18.5,69,0.00,BKN,,0.00,WeatherDisplay:10.37,2013-01-20 06:08:00,
2013-01-20 00:13:00,12.0,3.8,29.96,WSW,240,11.3,17.3,69,0.00,BKN,,0.00,WeatherDisplay:10.37,2013-01-20 06:13:00,
2013-01-20 00:18:00,11.9,4.0,29.96,WNW,298,7.9,19.6,70,0.00,BKN,,0.00,WeatherDisplay:10.37,2013-01-20 06:18:00,
2013-01-20 00:23:00,11.7,3.8,29.97,West,274,13.9,20.1,70,0.00,BKN,,0.00,WeatherDisplay:10.37,2013-01-20 06:23:00,
2013-01-20 00:28:00,11.5,3.6,29.97,NW,311,11.7,21.9,70,0.00,BKN,,0.00,WeatherDisplay:10.37,2013-01-20 06:28:00,
2013-01-20 00:33:00,11.7,3.8,29.98,WNW,282,7.0,19.8,70,0.00,BKN,,0.00,WeatherDisplay:10.37,2013-01-20 06:33:00,
2013-01-20 00:38:00,11.7,3.2,29.98,NW,311,10.0,17.3,68,0.00,BKN,,0.00,WeatherDisplay:10.37,2013-01-20 06:38:00,
2013-01-20 00:43:00,11.3,2.8,29.99,WNW,291,12.7,19.6,68,0.00,BKN,,0.00,WeatherDisplay:10.37,2013-01-20 06:43:00,
2013-01-20 00:48:00,11.1,1.9,29.99,West,270,8.1,18.4,66,0.00,BKN,,0.00,WeatherDisplay:10.37,2013-01-20 06:48:00,
2013-01-20 00:53:00,11.0,1.9,30.00,WNW,284,11.2,24.2,66,0.00,BKN,,0.00,WeatherDisplay:10.37,2013-01-20 06:53:00,
2013-01-20 00:58:00,10.8,1.7,30.00,NW,315,11.5,26.5,66,0.00,BKN,,0.00,WeatherDisplay:10.37,2013-01-20 06:58:00,
2013-01-20 01:03:00,10.8,1.7,30.00,NW,311,8.7,16.1,66,0.00,-SN,,0.00,WeatherDisplay:10.37,2013-01-20 07:03:00,
2013-01-20 01:08:00,10.4,1.0,30.01,NW,313,12.6,20.1,65,0.00,-SN,,0.00,WeatherDisplay:10.37,2013-01-20 07:08:00,
2013-01-20 01:13:00,10.3,1.2,30.01,WNW,298,6.9,17.3,66,0.00,-SN,,0.00,WeatherDisplay:10.37,2013-01-20 07:13:00,
2013-01-20 01:18:00,10.0,0.6,30.01,SSW,192,8.6,20.3,65,0.00,-SN,,0.00,WeatherDisplay:10.37,2013-01-20 07:18:00,
2013-01-20 01:23:00,9.8,0.7,30.01,WNW,284,10.6,15.0,66,0.00,-SN,,0.00,WeatherDisplay:10.37,2013-01-20 07:23:00,
2013-01-20 01:28:00,9.9,0.8,30.02,West,278,8.1,13.8,66,0.00,-SN,,0.00,WeatherDisplay:10.37,2013-01-20 07:28:00,
2013-01-20 01:33:00,9.9,0.8,30.02,SW,220,7.7,16.1,66,0.00,-SN,,0.00,WeatherDisplay:10.37,2013-01-20 07:33:00,
2013-01-20 01:38:00,9.6,0.2,30.02,NW,316,8.0,13.8,65,0.00,-SN,,0.00,WeatherDisplay:10.37,2013-01-20 07:38:00,
2013-01-20 01:43:00,9.4,0.0,30.02,West,281,8.0,15.0,65,0.00,-SN,,0.00,WeatherDisplay:10.37,2013-01-20 07:43:00,
2013-01-20 01:48:00,9.4,0.3,30.03,NW,319,11.4,13.8,66,0.00,-SN,,0.00,WeatherDisplay:10.37,2013-01-20 07:48:00,
2013-01-20 01:53:00,9.4,0.0,30.03,WNW,299,7.5,11.5,65,0.00,-SN,,0.00,WeatherDisplay:10.37,2013-01-20 07:53:00,
2013-01-20 01:58:00,9.3,0.5,30.04,West,265,9.6,11.9,67,0.00,-SN,,0.00,WeatherDisplay:10.37,2013-01-20 07:58:00,
2013-01-20 02:03:00,9.1,0.0,30.04,WSW,257,9.9,20.7,66,0.00,CLR,,0.00,WeatherDisplay:10.37,2013-01-20 08:03:00,
2013-01-20 02:08:00,8.8,-0.3,30.05,WSW,250,9.7,19.6,66,0.00,CLR,,0.00,WeatherDisplay:10.37,2013-01-20 08:08:00,
2013-01-20 02:13:00,8.8,-0.3,30.06,WNW,298,7.2,11.5,66,0.00,CLR,,0.00,WeatherDisplay:10.37,2013-01-20 08:13:00,
2013-01-20 02:18:00,8.7,-0.3,30.07,West,261,5.5,11.5,66,0.00,CLR,,0.00,WeatherDisplay:10.37,2013-01-20 08:18:00,
2013-01-20 02:23:00,8.5,-0.5,30.08,WNW,282,11.4,17.3,66,0.00,CLR,,0.00,WeatherDisplay:10.37,2013-01-20 08:23:00,
2013-01-20 02:28:00,8.7,-0.3,30.08,West,281,4.8,7.3,66,0.00,CLR,,0.00,WeatherDisplay:10.37,2013-01-20 08:28:00,
2013-01-20 02:33:00,8.5,-0.5,30.08,West,265,5.2,11.5,66,0.00,CLR,,0.00,WeatherDisplay:10.37,2013-01-20 08:33:00,
2013-01-20 02:38:00,8.3,-0.7,30.09,West,280,7.6,15.0,66,0.00,CLR,,0.00,WeatherDisplay:10.37,2013-01-20 08:38:00,
2013-01-20 02:43:00,8.2,-0.5,30.09,West,261,8.8,10.4,67,0.00,CLR,,0.00,WeatherDisplay:10.37,2013-01-20 08:43:00,
2013-01-20 02:48:00,8.2,-0.2,30.09,NW,326,6.9,8.1,68,0.00,CLR,,0.00,WeatherDisplay:10.37,2013-01-20 08:48:00,
2013-01-20 02:53:00,8.1,0.3,30.09,WNW,292,6.0,11.5,70,0.00,CLR,,0.00,WeatherDisplay:10.37,2013-01-20 08:53:00,
2013-01-20 02:58:00,8.2,0.7,30.09,NE,34,3.1,12.7,71,0.00,CLR,,0.00,WeatherDisplay:10.37,2013-01-20 08:58:00,
2013-01-20 03:03:00,7.8,0.6,30.10,West,281,9.6,15.0,72,0.00,CLR,,0.00,WeatherDisplay:10.37,2013-01-20 09:03:00,
2013-01-20 03:08:00,7.6,0.2,30.10,West,278,11.1,16.1,71,0.00,CLR,,0.00,WeatherDisplay:10.37,2013-01-20 09:08:00,
2013-01-20 03:13:00,7.9,0.7,30.10,NNW,335,4.9,10.4,72,0.00,CLR,,0.00,WeatherDisplay:10.37,2013-01-20 09:13:00,
2013-01-20 03:18:00,7.6,0.5,30.10,North,360,7.5,13.8,72,0.00,CLR,,0.00,WeatherDisplay:10.37,2013-01-20 09:18:00,
2013-01-20 03:23:00,7.4,-0.3,30.11,WNW,298,9.7,20.7,70,0.00,CLR,,0.00,WeatherDisplay:10.37,2013-01-20 09:23:00,
2013-01-20 03:28:00,7.5,-0.2,30.11,NW,315,5.5,11.5,70,0.00,CLR,,0.00,WeatherDisplay:10.37,2013-01-20 09:28:00,
2013-01-20 03:33:00,7.6,-0.1,30.11,WNW,292,4.4,5.8,70,0.00,CLR,,0.00,WeatherDisplay:10.37,2013-01-20 09:33:00,
2013-01-20 03:38:00,7.2,-0.2,30.11,WSW,250,5.6,17.3,71,0.00,CLR,,0.00,WeatherDisplay:10.37,2013-01-20 09:38:00,
2013-01-20 03:43:00,7.1,-0.3,30.11,NW,311,5.9,13.8,71,0.00,CLR,,0.00,WeatherDisplay:10.37,2013-01-20 09:43:00,
2013-01-20 03:48:00,6.8,-0.6,30.12,WNW,289,9.7,18.4,71,0.00,CLR,,0.00,WeatherDisplay:10.37,2013-01-20 09:48:00,
2013-01-20 03:53:00,6.6,-0.5,30.12,WNW,288,6.2,8.1,72,0.00,CLR,,0.00,WeatherDisplay:10.37,2013-01-20 09:53:00,
2013-01-20 03:58:00,6.6,-0.5,30.12,WNW,292,5.0,8.1,72,0.00,CLR,,0.00,WeatherDisplay:10.37,2013-01-20 09:58:00,
2013-01-20 04:03:00,6.5,-0.6,30.13,WNW,284,6.4,6.9,72,0.00,CLR,,0.00,WeatherDisplay:10.37,2013-01-20 10:03:00,
2013-01-20 04:08:00,6.5,-0.9,30.13,NW,311,8.6,11.5,71,0.00,CLR,,0.00,WeatherDisplay:10.37,2013-01-20 10:08:00,
2013-01-20 04:13:00,6.5,-0.9,30.13,WNW,288,6.5,10.4,71,0.00,CLR,,0.00,WeatherDisplay:10.37,2013-01-20 10:13:00,
2013-01-20 04:18:00,6.4,-0.7,30.13,West,272,7.1,11.6,72,0.00,CLR,,0.00,WeatherDisplay:10.37,2013-01-20 10:18:00,
2013-01-20 04:23:00,6.3,-0.8,30.13,WSW,246,10.2,16.1,72,0.00,CLR,,0.00,WeatherDisplay:10.37,2013-01-20 10:23:00,
2013-01-20 04:28:00,6.3,-0.5,30.14,West,264,5.8,9.8,73,0.00,CLR,,0.00,WeatherDisplay:10.37,2013-01-20 10:28:00,
2013-01-20 04:33:00,6.1,-1.0,30.14,West,270,6.8,18.4,72,0.00,CLR,,0.00,WeatherDisplay:10.37,2013-01-20 10:33:00,
2013-01-20 04:38:00,6.3,-0.8,30.14,WSW,256,6.5,12.0,72,0.00,CLR,,0.00,WeatherDisplay:10.37,2013-01-20 10:38:00,
2013-01-20 04:43:00,6.2,-0.9,30.14,West,270,8.6,10.4,72,0.00,CLR,,0.00,WeatherDisplay:10.37,2013-01-20 10:43:00,
2013-01-20 04:48:00,6.1,-0.7,30.14,West,268,5.1,17.2,73,0.00,CLR,,0.00,WeatherDisplay:10.37,2013-01-20 10:48:00,
2013-01-20 04:53:00,5.9,-0.9,30.14,West,275,8.3,15.0,73,0.00,CLR,,0.00,WeatherDisplay:10.37,2013-01-20 10:53:00,
2013-01-20 04:58:00,5.9,-0.6,30.15,NW,316,6.0,11.5,74,0.00,CLR,,0.00,WeatherDisplay:10.37,2013-01-20 10:58:00,
2013-01-20 05:03:00,5.9,-0.9,30.16,NW,309,4.6,14.4,73,0.00,CLR,,0.00,WeatherDisplay:10.37,2013-01-20 11:03:00,
2013-01-20 05:08:00,5.8,-0.7,30.16,WNW,301,8.5,12.7,74,0.00,CLR,,0.00,WeatherDisplay:10.37,2013-01-20 11:08:00,
2013-01-20 05:13:00,5.9,-0.6,30.16,West,278,6.4,10.4,74,0.00,CLR,,0.00,WeatherDisplay:10.37,2013-01-20 11:13:00,
2013-01-20 05:18:00,5.9,-0.6,30.17,SW,232,6.5,9.2,74,0.00,CLR,,0.00,WeatherDisplay:10.37,2013-01-20 11:18:00,
2013-01-20 05:23:00,5.8,-0.7,30.17,NW,309,5.9,9.2,74,0.00,CLR,,0.00,WeatherDisplay:10.37,2013-01-20 11:23:00,
2013-01-20 05:28:00,5.8,-0.7,30.17,WSW,251,6.1,12.7,74,0.00,CLR,,0.00,WeatherDisplay:10.37,2013-01-20 11:28:00,
2013-01-20 05:33:00,5.8,-1.0,30.17,West,272,8.5,13.8,73,0.00,CLR,,0.00,WeatherDisplay:10.37,2013-01-20 11:33:00,
2013-01-20 05:38:00,5.9,-0.9,30.16,NW,326,4.6,16.1,73,0.00,CLR,,0.00,WeatherDisplay:10.37,2013-01-20 11:38:00,
2013-01-20 05:43:00,5.9,-0.6,30.16,West,277,7.2,11.1,74,0.00,CLR,,0.00,WeatherDisplay:10.37,2013-01-20 11:43:00,
2013-01-20 05:48:00,5.6,-0.9,30.17,West,265,7.9,12.8,74,0.00,CLR,,0.00,WeatherDisplay:10.37,2013-01-20 11:48:00,
2013-01-20 05:53:00,5.6,-0.6,30.17,NW,311,8.7,11.5,75,0.00,CLR,,0.00,WeatherDisplay:10.37,2013-01-20 11:53:00,
2013-01-20 05:58:00,5.7,-0.8,30.17,West,271,6.9,8.1,74,0.00,CLR,,0.00,WeatherDisplay:10.37,2013-01-20 11:58:00,
2013-01-20 06:03:00,5.8,-0.7,30.18,West,277,5.2,11.5,74,0.00,CLR,,0.00,WeatherDisplay:10.37,2013-01-20 12:03:00,
2013-01-20 06:08:00,5.7,-0.5,30.18,NW,320,6.1,11.5,75,0.00,CLR,,0.00,WeatherDisplay:10.37,2013-01-20 12:08:00,
2013-01-20 06:13:00,5.7,-0.5,30.18,WNW,299,5.0,9.2,75,0.00,CLR,,0.00,WeatherDisplay:10.37,2013-01-20 12:13:00,
2013-01-20 06:18:00,5.7,-0.5,30.18,West,280,5.3,8.1,75,0.00,CLR,,0.00,WeatherDisplay:10.37,2013-01-20 12:18:00,
2013-01-20 06:23:00,5.7,-0.5,30.18,WNW,289,6.7,9.2,75,0.00,CLR,,0.00,WeatherDisplay:10.37,2013-01-20 12:23:00,
2013-01-20 06:28:00,5.6,-0.9,30.19,WSW,257,4.2,10.4,74,0.00,CLR,,0.00,WeatherDisplay:10.37,2013-01-20 12:28:00,
2013-01-20 06:33:00,5.6,-0.6,30.19,WNW,285,3.5,8.1,75,0.00,CLR,,0.00,WeatherDisplay:10.37,2013-01-20 12:33:00,
2013-01-20 06:38:00,5.5,-0.7,30.19,NNW,346,6.8,10.4,75,0.00,CLR,,0.00,WeatherDisplay:10.37,2013-01-20 12:38:00,
2013-01-20 06:43:00,5.5,-0.7,30.19,WNW,288,4.7,9.2,75,0.00,CLR,,0.00,WeatherDisplay:10.37,2013-01-20 12:43:00,
2013-01-20 06:48:00,5.4,-0.5,30.19,West,274,5.5,10.4,76,0.00,CLR,,0.00,WeatherDisplay:10.37,2013-01-20 12:48:00,
2013-01-20 06:53:00,5.4,-0.8,30.19,WNW,299,8.9,13.8,75,0.00,CLR,,0.00,WeatherDisplay:10.37,2013-01-20 12:53:00,
2013-01-20 06:58:00,5.4,-0.8,30.19,NW,320,3.6,11.5,75,0.00,CLR,,0.00,WeatherDisplay:10.37,2013-01-20 12:58:00,
2013-01-20 07:03:00,5.4,-0.8,30.19,NNW,336,4.8,11.5,75,0.00,FEW,,0.00,WeatherDisplay:10.37,2013-01-20 13:03:00,
2013-01-20 07:08:00,5.2,-0.7,30.20,SW,216,6.9,9.2,76,0.00,FEW,,0.00,WeatherDisplay:10.37,2013-01-20 13:08:00,
2013-01-20 07:13:00,5.2,-0.7,30.20,West,271,7.9,15.0,76,0.00,FEW,,0.00,WeatherDisplay:10.37,2013-01-20 13:13:00,
2013-01-20 07:18:00,5.2,-0.7,30.20,West,268,9.8,16.1,76,0.00,FEW,,0.00,WeatherDisplay:10.37,2013-01-20 13:18:00,
2013-01-20 07:24:00,5.3,-0.6,30.20,West,278,3.9,8.5,76,0.00,FEW,,0.00,WeatherDisplay:10.37,2013-01-20 13:24:00,
2013-01-20 07:29:00,5.0,-0.9,30.21,West,275,7.4,10.4,76,0.00,FEW,,0.00,WeatherDisplay:10.37,2013-01-20 13:29:00,
2013-01-20 07:34:00,5.0,-0.9,30.21,WNW,295,5.8,8.1,76,0.00,FEW,,0.00,WeatherDisplay:10.37,2013-01-20 13:34:00,
2013-01-20 07:39:00,4.9,-1.0,30.21,NW,311,6.8,13.8,76,0.00,FEW,,0.00,WeatherDisplay:10.37,2013-01-20 13:39:00,
2013-01-20 07:44:00,5.0,-0.9,30.22,WSW,243,2.6,6.9,76,0.00,FEW,,0.00,WeatherDisplay:10.37,2013-01-20 13:44:00,
2013-01-20 07:49:00,4.9,-1.0,30.22,WNW,302,7.0,11.5,76,0.00,FEW,,0.00,WeatherDisplay:10.37,2013-01-20 13:49:00,
2013-01-20 07:54:00,5.1,-0.8,30.22,WNW,301,6.4,9.2,76,0.00,FEW,,0.00,WeatherDisplay:10.37,2013-01-20 13:54:00,
2013-01-20 07:59:00,5.2,-0.7,30.23,WNW,302,3.2,6.9,76,0.00,FEW,,0.00,WeatherDisplay:10.37,2013-01-20 13:59:00,
2013-01-20 08:04:00,5.3,-0.6,30.22,SW,224,4.7,8.1,76,0.00,FEW,,0.00,WeatherDisplay:10.37,2013-01-20 14:04:00,
2013-01-20 08:09:00,5.4,-0.5,30.22,WSW,243,3.3,5.8,76,0.00,FEW,,0.00,WeatherDisplay:10.37,2013-01-20 14:09:00,
2013-01-20 08:14:00,5.8,-0.1,30.23,NW,305,1.2,3.5,76,0.00,FEW,,0.00,WeatherDisplay:10.37,2013-01-20 14:14:00,
2013-01-20 08:19:00,5.8,-0.1,30.23,NW,319,5.3,9.2,76,0.00,FEW,,0.00,WeatherDisplay:10.37,2013-01-20 14:19:00,
2013-01-20 08:24:00,5.9,0.0,30.24,NW,316,1.9,10.4,76,0.00,FEW,,0.00,WeatherDisplay:10.37,2013-01-20 14:24:00,
2013-01-20 08:29:00,6.0,-0.2,30.24,NW,319,4.8,10.4,75,0.00,FEW,,0.00,WeatherDisplay:10.37,2013-01-20 14:29:00,
2013-01-20 08:34:00,6.0,-0.5,30.24,NNW,335,5.9,11.5,74,0.00,FEW,,0.00,WeatherDisplay:10.37,2013-01-20 14:34:00,
2013-01-20 08:39:00,5.6,-1.2,30.24,WNW,284,7.8,11.8,73,0.00,FEW,,0.00,WeatherDisplay:10.37,2013-01-20 14:39:00,
2013-01-20 08:44:00,5.6,-0.9,30.24,NW,326,7.6,11.5,74,0.00,FEW,,0.00,WeatherDisplay:10.37,2013-01-20 14:44:00,
2013-01-20 08:49:00,5.8,-0.7,30.24,SW,232,2.7,6.9,74,0.00,FEW,,0.00,WeatherDisplay:10.37,2013-01-20 14:49:00,
2013-01-20 08:54:00,5.9,-0.6,30.24,WNW,282,6.4,10.4,74,0.00,FEW,,0.00,WeatherDisplay:10.37,2013-01-20 14:54:00,
2013-01-20 08:59:00,6.3,-0.2,30.24,NNW,343,4.8,9.2,74,0.00,FEW,,0.00,WeatherDisplay:10.37,2013-01-20 14:59:00,
2013-01-20 09:04:00,6.0,-0.8,30.25,WNW,282,8.9,15.0,73,0.00,FEW,,0.00,WeatherDisplay:10.37,2013-01-20 15:04:00,
2013-01-20 09:09:00,6.4,-0.4,30.25,West,265,5.5,9.2,73,0.00,FEW,,0.00,WeatherDisplay:10.37,2013-01-20 15:09:00,
2013-01-20 09:14:00,6.5,-0.6,30.24,NW,325,3.3,5.8,72,0.00,FEW,,0.00,WeatherDisplay:10.37,2013-01-20 15:14:00,
2013-01-20 09:19:00,6.7,-0.1,30.24,NNW,343,4.0,8.1,73,0.00,FEW,,0.00,WeatherDisplay:10.37,2013-01-20 15:19:00,
2013-01-20 09:24:00,6.9,-0.2,30.24,NNW,335,3.0,5.8,72,0.00,FEW,,0.00,WeatherDisplay:10.37,2013-01-20 15:24:00,
2013-01-20 09:29:00,6.9,-0.2,30.24,North,0,2.4,6.9,72,0.00,FEW,,0.00,WeatherDisplay:10.37,2013-01-20 15:29:00,
2013-01-20 09:34:00,6.9,-0.5,30.25,NNW,329,4.1,8.1,71,0.00,FEW,,0.00,WeatherDisplay:10.37,2013-01-20 15:34:00,
2013-01-20 09:39:00,6.9,-0.5,30.25,West,274,4.7,8.1,71,0.00,FEW,,0.00,WeatherDisplay:10.37,2013-01-20 15:39:00,
2013-01-20 09:44:00,6.9,-0.5,30.25,WNW,301,2.8,8.1,71,0.00,FEW,,0.00,WeatherDisplay:10.37,2013-01-20 15:44:00,
2013-01-20 09:49:00,7.2,0.1,30.25,WNW,291,3.9,6.4,72,0.00,FEW,,0.00,WeatherDisplay:10.37,2013-01-20 15:49:00,
2013-01-20 09:54:00,7.2,0.1,30.25,WNW,301,3.8,5.8,72,0.00,FEW,,0.00,WeatherDisplay:10.37,2013-01-20 15:54:00,
2013-01-20 09:59:00,7.1,-0.3,30.26,NW,315,5.8,8.1,71,0.00,FEW,,0.00,WeatherDisplay:10.37,2013-01-20 15:59:00,
2013-01-20 10:04:00,7.7,0.5,30.25,NW,311,2.8,6.9,72,0.00,FEW,,0.00,WeatherDisplay:10.37,2013-01-20 16:04:00,
2013-01-20 10:09:00,7.4,-0.3,30.26,West,267,5.1,9.2,70,0.00,FEW,,0.00,WeatherDisplay:10.37,2013-01-20 16:09:00,
2013-01-20 10:14:00,7.2,-0.2,30.26,WNW,298,6.5,9.2,71,0.00,FEW,,0.00,WeatherDisplay:10.37,2013-01-20 16:14:00,
2013-01-20 10:19:00,7.2,-0.2,30.26,NW,312,5.3,8.1,71,0.00,FEW,,0.00,WeatherDisplay:10.37,2013-01-20 16:19:00,
2013-01-20 10:24:00,7.8,0.3,30.26,West,271,3.5,9.2,71,0.00,FEW,,0.00,WeatherDisplay:10.37,2013-01-20 16:24:00,
2013-01-20 10:29:00,7.9,0.1,30.26,West,261,2.3,2.3,70,0.00,FEW,,0.00,WeatherDisplay:10.37,2013-01-20 16:29:00,
2013-01-20 10:34:00,8.7,0.3,30.26,NW,305,5.7,9.2,68,0.00,FEW,,0.00,WeatherDisplay:10.37,2013-01-20 16:34:00,
2013-01-20 10:39:00,8.3,-0.1,30.27,West,278,8.2,11.5,68,0.00,FEW,,0.00,WeatherDisplay:10.37,2013-01-20 16:39:00,
2013-01-20 10:44:00,8.5,0.4,30.27,WSW,253,4.3,8.1,69,0.00,FEW,,0.00,WeatherDisplay:10.37,2013-01-20 16:44:00,
2013-01-20 10:49:00,9.3,1.2,30.26,NW,308,2.2,6.7,69,0.00,FEW,,0.00,WeatherDisplay:10.37,2013-01-20 16:49:00,
2013-01-20 10:54:00,9.1,0.7,30.26,WNW,292,4.6,9.2,68,0.00,FEW,,0.00,WeatherDisplay:10.37,2013-01-20 16:54:00,
2013-01-20 10:59:00,9.2,0.1,30.26,WNW,291,4.3,9.2,66,0.00,FEW,,0.00,WeatherDisplay:10.37,2013-01-20 16:59:00,
2013-01-20 11:04:00,9.6,1.2,30.26,NNW,340,4.0,5.8,68,0.00,FEW,,0.00,WeatherDisplay:10.37,2013-01-20 17:04:00,
2013-01-20 11:09:00,10.1,1.3,30.26,NW,318,6.8,10.4,67,0.00,FEW,,0.00,WeatherDisplay:10.37,2013-01-20 17:09:00,
2013-01-20 11:14:00,9.6,0.8,30.26,SW,236,5.3,9.2,67,0.00,FEW,,0.00,WeatherDisplay:10.37,2013-01-20 17:14:00,
2013-01-20 11:19:00,9.7,1.2,30.25,SW,230,4.2,5.9,68,0.00,FEW,,0.00,WeatherDisplay:10.37,2013-01-20 17:19:00,
2013-01-20 11:24:00,10.2,1.7,30.25,WSW,256,0.9,2.3,68,0.00,FEW,,0.00,WeatherDisplay:10.37,2013-01-20 17:24:00,
2013-01-20 11:29:00,10.0,0.9,30.25,West,260,7.0,12.7,66,0.00,FEW,,0.00,WeatherDisplay:10.37,2013-01-20 17:29:00,
2013-01-20 11:34:00,9.7,0.6,30.25,West,272,6.3,8.8,66,0.00,FEW,,0.00,WeatherDisplay:10.37,2013-01-20 17:34:00,
2013-01-20 11:39:00,9.6,0.8,30.25,SW,222,8.5,10.4,67,0.00,FEW,,0.00,WeatherDisplay:10.37,2013-01-20 17:39:00,
2013-01-20 11:44:00,10.4,1.9,30.25,SSW,209,4.5,8.1,68,0.00,FEW,,0.00,WeatherDisplay:10.37,2013-01-20 17:44:00,
2013-01-20 11:49:00,10.6,1.5,30.24,WNW,284,5.0,8.1,66,0.00,FEW,,0.00,WeatherDisplay:10.37,2013-01-20 17:49:00,
2013-01-20 11:54:00,10.7,1.2,30.24,WNW,294,6.1,9.2,65,0.00,FEW,,0.00,WeatherDisplay:10.37,2013-01-20 17:54:00,
2013-01-20 11:59:00,10.3,1.2,30.24,WSW,253,5.8,10.4,66,0.00,FEW,,0.00,WeatherDisplay:10.37,2013-01-20 17:59:00,
2013-01-20 12:04:00,10.3,1.2,30.24,WSW,257,5.4,9.2,66,0.00,FEW,,0.00,WeatherDisplay:10.37,2013-01-20 18:04:00,
2013-01-20 12:09:00,10.2,0.8,30.24,SW,219,8.6,13.8,65,0.00,FEW,,0.00,WeatherDisplay:10.37,2013-01-20 18:09:00,
2013-01-20 12:14:00,10.9,1.4,30.24,SW,217,6.5,10.4,65,0.00,FEW,,0.00,WeatherDisplay:10.37,2013-01-20 18:14:00,
2013-01-20 12:19:00,11.8,2.3,30.24,West,274,4.0,9.2,65,0.00,FEW,,0.00,WeatherDisplay:10.37,2013-01-20 18:19:00,
2013-01-20 12:24:00,11.5,1.0,30.23,SW,224,5.3,10.4,62,0.00,FEW,,0.00,WeatherDisplay:10.37,2013-01-20 18:24:00,
2013-01-20 12:29:00,11.0,0.5,30.22,NW,308,5.6,11.5,62,0.00,FEW,,0.00,WeatherDisplay:10.37,2013-01-20 18:29:00,
2013-01-20 12:34:00,11.4,1.2,30.22,West,267,4.1,8.1,63,0.00,FEW,,0.00,WeatherDisplay:10.37,2013-01-20 18:34:00,
2013-01-20 12:39:00,11.6,0.7,30.22,WNW,291,8.5,11.5,61,0.00,FEW,,0.00,WeatherDisplay:10.37,2013-01-20 18:39:00,
2013-01-20 12:44:00,11.5,0.6,30.22,WNW,295,7.5,11.6,61,0.00,FEW,,0.00,WeatherDisplay:10.37,2013-01-20 18:44:00,
2013-01-20 12:49:00,11.8,0.9,30.21,West,277,6.9,10.4,61,0.00,FEW,,0.00,WeatherDisplay:10.37,2013-01-20 18:49:00,
2013-01-20 12:54:00,11.3,0.4,30.21,WNW,298,6.4,12.7,61,0.00,FEW,,0.00,WeatherDisplay:10.37,2013-01-20 18:54:00,
2013-01-20 12:59:00,12.0,1.1,30.21,NW,322,2.5,4.0,61,0.00,FEW,,0.00,WeatherDisplay:10.37,2013-01-20 18:59:00,
2013-01-20 13:04:00,13.1,2.2,30.21,WNW,301,2.2,4.6,61,0.00,SCT,,0.00,WeatherDisplay:10.37,2013-01-20 19:04:00,
2013-01-20 13:09:00,13.2,1.2,30.21,NW,316,3.8,6.9,58,0.00,SCT,,0.00,WeatherDisplay:10.37,2013-01-20 19:09:00,
2013-01-20 13:14:00,12.7,0.3,30.21,West,268,6.6,15.0,57,0.00,SCT,,0.00,WeatherDisplay:10.37,2013-01-20 19:14:00,
2013-01-20 13:19:00,11.9,-0.1,30.21,WNW,302,5.7,11.5,58,0.00,SCT,,0.00,WeatherDisplay:10.37,2013-01-20 19:19:00,
2013-01-20 13:24:00,12.5,1.2,30.21,West,280,5.4,10.6,60,0.00,SCT,,0.00,WeatherDisplay:10.37,2013-01-20 19:24:00,
2013-01-20 13:29:00,12.0,0.4,30.21,WSW,258,6.7,11.5,59,0.00,SCT,,0.00,WeatherDisplay:10.37,2013-01-20 19:29:00,
2013-01-20 13:34:00,12.6,0.6,30.21,NW,304,4.2,8.3,58,0.00,SCT,,0.00,WeatherDisplay:10.37,2013-01-20 19:34:00,
2013-01-20 13:39:00,13.0,1.0,30.21,NNW,335,8.0,13.8,58,0.00,SCT,,0.00,WeatherDisplay:10.37,2013-01-20 19:39:00,
2013-01-20 13:44:00,12.3,-0.1,30.21,SSW,205,6.5,12.7,57,0.00,SCT,,0.00,WeatherDisplay:10.37,2013-01-20 19:44:00,
2013-01-20 13:49:00,12.6,0.6,30.21,NNE,23,6.5,11.5,58,0.00,SCT,,0.00,WeatherDisplay:10.37,2013-01-20 19:49:00,
2013-01-20 13:54:00,13.2,1.5,30.21,WSW,251,6.4,9.2,59,0.00,SCT,,0.00,WeatherDisplay:10.37,2013-01-20 19:54:00,
2013-01-20 13:59:00,13.3,1.3,30.21,North,360,3.2,10.4,58,0.00,SCT,,0.00,WeatherDisplay:10.37,2013-01-20 19:59:00,
2013-01-20 14:04:00,13.1,0.7,30.21,West,263,3.4,8.1,57,0.00,FEW,,0.00,WeatherDisplay:10.37,2013-01-20 20:04:00,
2013-01-20 14:09:00,13.1,1.1,30.21,West,265,4.6,9.2,58,0.00,FEW,,0.00,WeatherDisplay:10.37,2013-01-20 20:09:00,
2013-01-20 14:14:00,12.4,0.0,30.22,NNW,337,5.9,9.2,57,0.00,FEW,,0.00,WeatherDisplay:10.37,2013-01-20 20:14:00,
2013-01-20 14:19:00,12.6,0.6,30.21,West,260,6.7,10.4,58,0.00,FEW,,0.00,WeatherDisplay:10.37,2013-01-20 20:19:00,
2013-01-20 14:24:00,12.4,0.4,30.21,South,178,6.4,10.4,58,0.00,FEW,,0.00,WeatherDisplay:10.37,2013-01-20 20:24:00,
2013-01-20 14:29:00,12.6,0.6,30.21,WSW,237,7.3,10.4,58,0.00,FEW,,0.00,WeatherDisplay:10.37,2013-01-20 20:29:00,
2013-01-20 14:34:00,12.4,0.0,30.21,West,267,7.9,10.4,57,0.00,FEW,,0.00,WeatherDisplay:10.37,2013-01-20 20:34:00,
2013-01-20 14:39:00,12.9,0.5,30.21,West,271,5.5,9.4,57,0.00,FEW,,0.00,WeatherDisplay:10.37,2013-01-20 20:39:00,
2013-01-20 14:44:00,13.3,1.3,30.21,NNE,16,3.3,8.1,58,0.00,FEW,,0.00,WeatherDisplay:10.37,2013-01-20 20:44:00,
2013-01-20 14:49:00,12.9,0.1,30.21,WNW,288,6.3,8.1,56,0.00,FEW,,0.00,WeatherDisplay:10.37,2013-01-20 20:49:00,
2013-01-20 14:54:00,13.8,1.0,30.21,West,274,6.1,12.7,56,0.00,FEW,,0.00,WeatherDisplay:10.37,2013-01-20 20:54:00,
2013-01-20 14:59:00,14.4,1.2,30.21,West,274,6.6,11.5,55,0.00,FEW,,0.00,WeatherDisplay:10.37,2013-01-20 20:59:00,
2013-01-20 15:04:00,13.7,-0.3,30.21,West,261,5.9,10.4,53,0.00,BKN,,0.00,WeatherDisplay:10.37,2013-01-20 21:04:00,
2013-01-20 15:09:00,14.0,0.4,30.20,WNW,298,6.4,12.7,54,0.00,BKN,,0.00,WeatherDisplay:10.37,2013-01-20 21:09:00,
2013-01-20 15:14:00,13.6,0.0,30.20,SSE,162,9.1,17.3,54,0.00,BKN,,0.00,WeatherDisplay:10.37,2013-01-20 21:14:00,
2013-01-20 15:19:00,13.5,-0.1,30.20,WSW,256,4.9,8.1,54,0.00,BKN,,0.00,WeatherDisplay:10.37,2013-01-20 21:19:00,
2013-01-20 15:24:00,14.0,0.8,30.20,SW,223,5.4,9.2,55,0.00,BKN,,0.00,WeatherDisplay:10.37,2013-01-20 21:24:00,
2013-01-20 15:29:00,14.0,0.4,30.19,NW,305,2.4,5.8,54,0.00,BKN,,0.00,WeatherDisplay:10.37,2013-01-20 21:29:00,
2013-01-20 15:34:00,13.8,0.2,30.20,WSW,244,3.9,8.5,54,0.00,BKN,,0.00,WeatherDisplay:10.37,2013-01-20 21:34:00,
2013-01-20 15:39:00,13.7,0.5,30.19,West,277,4.1,8.1,55,0.00,BKN,,0.00,WeatherDisplay:10.37,2013-01-20 21:39:00,
2013-01-20 15:44:00,13.4,0.6,30.19,SW,233,5.3,11.5,56,0.00,BKN,,0.00,WeatherDisplay:10.37,2013-01-20 21:44:00,
2013-01-20 15:49:00,13.0,-0.2,30.19,WSW,254,7.2,9.2,55,0.00,BKN,,0.00,WeatherDisplay:10.37,2013-01-20 21:49:00,
2013-01-20 15:54:00,13.0,0.2,30.19,SW,227,4.9,6.9,56,0.00,BKN,,0.00,WeatherDisplay:10.37,2013-01-20 21:54:00,
2013-01-20 15:59:00,12.9,-0.3,30.19,WNW,292,6.3,9.2,55,0.00,BKN,,0.00,WeatherDisplay:10.37,2013-01-20 21:59:00,
2013-01-20 16:04:00,13.1,0.3,30.19,WSW,243,5.6,8.1,56,0.00,FEW,,0.00,WeatherDisplay:10.37,2013-01-20 22:04:00,
2013-01-20 16:09:00,12.9,0.1,30.19,SSW,213,4.9,9.2,56,0.00,FEW,,0.00,WeatherDisplay:10.37,2013-01-20 22:09:00,
2013-01-20 16:14:00,13.1,0.7,30.19,West,275,2.6,7.9,57,0.00,FEW,,0.00,WeatherDisplay:10.37,2013-01-20 22:14:00,
2013-01-20 16:19:00,13.0,-0.2,30.19,SSW,210,4.5,9.2,55,0.00,FEW,,0.00,WeatherDisplay:10.37,2013-01-20 22:19:00,
2013-01-20 16:24:00,13.0,0.2,30.19,West,271,2.1,5.8,56,0.00,FEW,,0.00,WeatherDisplay:10.37,2013-01-20 22:24:00,
2013-01-20 16:29:00,12.2,-0.9,30.19,NW,308,7.5,11.5,55,0.00,FEW,,0.00,WeatherDisplay:10.37,2013-01-20 22:29:00,
2013-01-20 16:34:00,12.4,-0.7,30.19,WNW,285,4.2,6.9,55,0.00,FEW,,0.00,WeatherDisplay:10.37,2013-01-20 22:34:00,
2013-01-20 16:39:00,12.4,-0.3,30.19,NNE,18,1.6,6.9,56,0.00,FEW,,0.00,WeatherDisplay:10.37,2013-01-20 22:39:00,
2013-01-20 16:44:00,12.4,0.0,30.19,SSW,213,1.8,4.6,57,0.00,FEW,,0.00,WeatherDisplay:10.37,2013-01-20 22:44:00,
2013-01-20 16:49:00,12.1,-0.6,30.19,West,277,4.9,9.2,56,0.00,FEW,,0.00,WeatherDisplay:10.37,2013-01-20 22:49:00,
2013-01-20 16:54:00,12.1,-0.6,30.19,NW,311,2.5,4.6,56,0.00,FEW,,0.00,WeatherDisplay:10.37,2013-01-20 22:54:00,
2013-01-20 16:59:00,12.0,-0.3,30.19,WSW,247,2.5,5.8,57,0.00,FEW,,0.00,WeatherDisplay:10.37,2013-01-20 22:59:00,
2013-01-20 17:04:00,11.8,-0.9,30.19,North,357,3.8,9.2,56,0.00,BKN,,0.00,WeatherDisplay:10.37,2013-01-20 23:04:00,
2013-01-20 17:09:00,11.7,-0.6,30.19,WSW,247,3.5,6.9,57,0.00,BKN,,0.00,WeatherDisplay:10.37,2013-01-20 23:09:00,
2013-01-20 17:14:00,11.9,-0.4,30.19,West,265,1.9,3.5,57,0.00,BKN,,0.00,WeatherDisplay:10.37,2013-01-20 23:14:00,
2013-01-20 17:19:00,11.7,-0.6,30.19,SW,217,0.5,4.5,57,0.00,BKN,,0.00,WeatherDisplay:10.37,2013-01-20 23:19:00,
2013-01-20 17:24:00,11.6,0.0,30.19,NW,313,2.6,6.9,59,0.00,BKN,,0.00,WeatherDisplay:10.37,2013-01-20 23:24:00,
2013-01-20 17:29:00,11.9,1.7,30.19,West,270,3.0,4.6,63,0.00,BKN,,0.00,WeatherDisplay:10.37,2013-01-20 23:29:00,
2013-01-20 17:34:00,11.4,-0.2,30.19,West,263,5.0,9.2,59,0.00,BKN,,0.00,WeatherDisplay:10.37,2013-01-20 23:34:00,
2013-01-20 17:39:00,11.4,0.2,30.19,WNW,282,1.6,3.5,60,0.00,BKN,,0.00,WeatherDisplay:10.37,2013-01-20 23:39:00,
2013-01-20 17:44:00,11.5,0.3,30.19,West,260,3.5,6.9,60,0.00,BKN,,0.00,WeatherDisplay:10.37,2013-01-20 23:44:00,
2013-01-20 17:49:00,11.5,0.3,30.19,SW,224,2.3,5.8,60,0.00,BKN,,0.00,WeatherDisplay:10.37,2013-01-20 23:49:00,
2013-01-20 17:54:00,11.4,0.5,30.19,SW,227,0.3,2.3,61,0.00,BKN,,0.00,WeatherDisplay:10.37,2013-01-20 23:54:00,
2013-01-20 17:59:00,11.3,0.4,30.20,West,274,0.0,0.0,61,0.00,BKN,,0.00,WeatherDisplay:10.37,2013-01-20 23:59:00,
2013-01-20 18:04:00,11.1,0.3,30.20,West,264,0.0,0.0,61,0.00,FEW,,0.00,WeatherDisplay:10.37,2013-01-21 00:04:00,
2013-01-20 18:09:00,11.1,0.3,30.20,West,263,0.0,0.0,61,0.00,FEW,,0.00,WeatherDisplay:10.37,2013-01-21 00:09:00,
2013-01-20 18:14:00,10.9,0.4,30.20,WSW,256,0.9,4.6,62,0.00,FEW,,0.00,WeatherDisplay:10.37,2013-01-21 00:14:00,
2013-01-20 18:19:00,10.9,0.4,30.19,NW,315,0.0,4.6,62,0.00,FEW,,0.00,WeatherDisplay:10.37,2013-01-21 00:19:00,
2013-01-20 18:24:00,10.8,0.3,30.19,WSW,246,1.8,4.6,62,0.00,FEW,,0.00,WeatherDisplay:10.37,2013-01-21 00:24:00,
2013-01-20 18:29:00,10.8,0.3,30.19,SW,222,0.2,3.5,62,0.00,FEW,,0.00,WeatherDisplay:10.37,2013-01-21 00:29:00,
2013-01-20 18:34:00,10.8,0.7,30.19,SW,236,3.3,4.6,63,0.00,FEW,,0.00,WeatherDisplay:10.37,2013-01-21 00:34:00,
2013-01-20 18:39:00,10.8,0.7,30.19,WSW,239,0.0,1.1,63,0.00,FEW,,0.00,WeatherDisplay:10.37,2013-01-21 00:39:00,
2013-01-20 18:44:00,10.7,0.6,30.19,West,277,0.0,0.0,63,0.00,FEW,,0.00,WeatherDisplay:10.37,2013-01-21 00:44:00,
2013-01-20 18:49:00,10.9,1.1,30.19,West,277,0.0,0.0,64,0.00,FEW,,0.00,WeatherDisplay:10.37,2013-01-21 00:49:00,
2013-01-20 18:54:00,10.8,1.0,30.19,WSW,256,0.0,0.0,64,0.00,FEW,,0.00,WeatherDisplay:10.37,2013-01-21 00:54:00,
2013-01-20 18:59:00,10.8,1.3,30.19,WSW,256,0.0,0.0,65,0.00,FEW,,0.00,WeatherDisplay:10.37,2013-01-21 00:59:00,
2013-01-20 19:04:00,10.9,1.4,30.19,WSW,256,0.0,0.0,65,0.00,CLR,,0.00,WeatherDisplay:10.37,2013-01-21 01:04:00,
2013-01-20 19:09:00,10.8,1.3,30.19,WSW,256,0.1,0.0,65,0.00,CLR,,0.00,WeatherDisplay:10.37,2013-01-21 01:09:00,
2013-01-20 19:14:00,10.9,2.1,30.18,SSW,192,0.5,3.5,67,0.00,CLR,,0.00,WeatherDisplay:10.37,2013-01-21 01:14:00,
2013-01-20 19:19:00,11.3,2.1,30.18,SSW,208,0.0,0.0,66,0.00,CLR,,0.00,WeatherDisplay:10.37,2013-01-21 01:19:00,
2013-01-20 19:24:00,11.0,1.9,30.18,SSW,212,0.0,0.0,66,0.00,CLR,,0.00,WeatherDisplay:10.37,2013-01-21 01:24:00,
2013-01-20 19:29:00,10.6,1.5,30.18,SSW,212,0.0,0.0,66,0.00,CLR,,0.00,WeatherDisplay:10.37,2013-01-21 01:29:00,
2013-01-20 19:34:00,10.4,1.6,30.18,SSW,212,0.0,0.0,67,0.00,CLR,,0.00,WeatherDisplay:10.37,2013-01-21 01:34:00,
2013-01-20 19:39:00,10.1,1.3,30.18,SSW,193,0.0,0.0,67,0.00,CLR,,0.00,WeatherDisplay:10.37,2013-01-21 01:39:00,
2013-01-20 19:44:00,10.0,1.2,30.17,SSW,212,0.0,0.0,67,0.00,CLR,,0.00,WeatherDisplay:10.37,2013-01-21 01:44:00,
2013-01-20 19:49:00,10.1,1.3,30.18,WSW,246,0.1,3.5,67,0.00,CLR,,0.00,WeatherDisplay:10.37,2013-01-21 01:49:00,
2013-01-20 19:54:00,10.1,1.3,30.18,WSW,258,0.0,0.0,67,0.00,CLR,,0.00,WeatherDisplay:10.37,2013-01-21 01:54:00,
2013-01-20 19:59:00,10.2,1.4,30.17,SW,229,0.3,1.1,67,0.00,CLR,,0.00,WeatherDisplay:10.37,2013-01-21 01:59:00,
2013-01-20 20:04:00,9.7,0.9,30.17,WSW,240,2.2,3.5,67,0.00,CLR,,0.00,WeatherDisplay:10.37,2013-01-21 02:04:00,
2013-01-20 20:09:00,9.7,0.9,30.18,WSW,240,1.3,2.3,67,0.00,CLR,,0.00,WeatherDisplay:10.37,2013-01-21 02:09:00,
2013-01-20 20:14:00,9.5,0.7,30.17,WSW,237,0.0,0.0,67,0.00,CLR,,0.00,WeatherDisplay:10.37,2013-01-21 02:14:00,
2013-01-20 20:19:00,9.2,0.8,30.18,NW,305,1.6,3.5,68,0.00,CLR,,0.00,WeatherDisplay:10.37,2013-01-21 02:19:00,
2013-01-20 20:24:00,9.1,0.7,30.17,SSE,165,0.4,2.3,68,0.00,CLR,,0.00,WeatherDisplay:10.37,2013-01-21 02:24:00,
2013-01-20 20:29:00,9.0,0.9,30.17,SSE,165,0.0,0.0,69,0.00,CLR,,0.00,WeatherDisplay:10.37,2013-01-21 02:29:00,
2013-01-20 20:34:00,8.8,0.7,30.17,WSW,256,0.4,1.1,69,0.00,CLR,,0.00,WeatherDisplay:10.37,2013-01-21 02:34:00,
2013-01-20 20:39:00,9.1,1.0,30.17,WNW,284,0.0,0.0,69,0.00,CLR,,0.00,WeatherDisplay:10.37,2013-01-21 02:39:00,
2013-01-20 20:44:00,9.2,1.1,30.17,WNW,284,0.0,0.0,69,0.00,CLR,,0.00,WeatherDisplay:10.37,2013-01-21 02:44:00,
2013-01-20 20:49:00,9.0,0.9,30.17,WSW,258,0.5,4.5,69,0.00,CLR,,0.00,WeatherDisplay:10.37,2013-01-21 02:49:00,
2013-01-20 20:54:00,9.2,1.1,30.17,WSW,251,0.0,0.0,69,0.00,CLR,,0.00,WeatherDisplay:10.37,2013-01-21 02:54:00,
2013-01-20 20:59:00,8.9,0.8,30.17,West,271,3.4,5.8,69,0.00,CLR,,0.00,WeatherDisplay:10.37,2013-01-21 02:59:00,
2013-01-20 21:04:00,8.7,0.6,30.17,WSW,254,4.7,8.1,69,0.00,CLR,,0.00,WeatherDisplay:10.37,2013-01-21 03:04:00,
2013-01-20 21:09:00,9.3,1.5,30.17,SW,219,4.0,9.2,70,0.00,CLR,,0.00,WeatherDisplay:10.37,2013-01-21 03:09:00,
2013-01-20 21:14:00,9.3,0.9,30.17,WNW,292,1.4,3.5,68,0.00,CLR,,0.00,WeatherDisplay:10.37,2013-01-21 03:14:00,
2013-01-20 21:19:00,9.0,0.3,30.17,WNW,302,4.2,8.1,67,0.00,CLR,,0.00,WeatherDisplay:10.37,2013-01-21 03:19:00,
2013-01-20 21:24:00,9.0,-0.1,30.17,WSW,246,3.6,6.9,66,0.00,CLR,,0.00,WeatherDisplay:10.37,2013-01-21 03:24:00,
2013-01-20 21:29:00,8.9,-0.2,30.16,SW,224,4.3,6.9,66,0.00,CLR,,0.00,WeatherDisplay:10.37,2013-01-21 03:29:00,
2013-01-20 21:34:00,8.7,-0.3,30.16,WNW,299,8.2,11.6,66,0.00,CLR,,0.00,WeatherDisplay:10.37,2013-01-21 03:34:00,
2013-01-20 21:39:00,8.9,-0.2,30.16,WNW,298,5.4,6.9,66,0.00,CLR,,0.00,WeatherDisplay:10.37,2013-01-21 03:39:00,
2013-01-20 21:44:00,9.1,0.4,30.16,WNW,295,4.4,10.4,67,0.00,CLR,,0.00,WeatherDisplay:10.37,2013-01-21 03:44:00,
2013-01-20 21:49:00,8.7,-0.3,30.15,West,270,2.9,4.6,66,0.00,CLR,,0.00,WeatherDisplay:10.37,2013-01-21 03:49:00,
2013-01-20 21:54:00,8.6,-0.4,30.15,WNW,289,4.4,8.1,66,0.00,CLR,,0.00,WeatherDisplay:10.37,2013-01-21 03:54:00,
2013-01-20 21:59:00,8.8,0.1,30.15,West,280,0.7,2.4,67,0.00,CLR,,0.00,WeatherDisplay:10.37,2013-01-21 03:59:00,
2013-01-20 22:04:00,8.8,0.1,30.15,SW,224,3.8,6.9,67,0.00,CLR,,0.00,WeatherDisplay:10.37,2013-01-21 04:04:00,
2013-01-20 22:09:00,8.8,0.4,30.14,West,267,0.0,2.3,68,0.00,CLR,,0.00,WeatherDisplay:10.37,2013-01-21 04:09:00,
2013-01-20 22:14:00,8.8,0.1,30.14,SSE,155,0.0,0.0,67,0.00,CLR,,0.00,WeatherDisplay:10.37,2013-01-21 04:14:00,
2013-01-20 22:19:00,9.1,1.0,30.14,SSW,195,0.0,0.0,69,0.00,CLR,,0.00,WeatherDisplay:10.37,2013-01-21 04:19:00,
2013-01-20 22:24:00,8.8,0.7,30.14,SW,220,0.0,0.0,69,0.00,CLR,,0.00,WeatherDisplay:10.37,2013-01-21 04:24:00,
2013-01-20 22:29:00,8.7,0.6,30.14,South,191,1.2,4.6,69,0.00,CLR,,0.00,WeatherDisplay:10.37,2013-01-21 04:29:00,
2013-01-20 22:34:00,8.6,0.5,30.14,SW,227,1.1,4.6,69,0.00,CLR,,0.00,WeatherDisplay:10.37,2013-01-21 04:34:00,
2013-01-20 22:39:00,8.7,0.6,30.14,WSW,258,0.0,0.0,69,0.00,CLR,,0.00,WeatherDisplay:10.37,2013-01-21 04:39:00,
2013-01-20 22:44:00,8.9,1.7,30.14,WSW,243,4.1,6.9,72,0.00,CLR,,0.00,WeatherDisplay:10.37,2013-01-21 04:44:00,
2013-01-20 22:49:00,9.1,1.3,30.14,WSW,246,1.7,4.0,70,0.00,CLR,,0.00,WeatherDisplay:10.37,2013-01-21 04:49:00,
2013-01-20 22:54:00,9.0,1.2,30.14,West,274,5.2,9.2,70,0.00,CLR,,0.00,WeatherDisplay:10.37,2013-01-21 04:54:00,
2013-01-20 22:59:00,8.8,0.7,30.14,West,261,5.5,9.2,69,0.00,CLR,,0.00,WeatherDisplay:10.37,2013-01-21 04:59:00,
2013-01-20 23:02:00,8.9,1.1,30.13,WNW,288,3.6,5.8,70,0.00,CLR,,0.00,WeatherDisplay:10.37,2013-01-21 05:02:00,
2013-01-20 23:03:00,8.8,1.0,30.13,WNW,291,4.0,4.6,70,0.00,CLR,,0.00,WeatherDisplay:10.37,2013-01-21 05:03:00,
2013-01-20 23:08:00,8.9,1.1,30.14,West,263,4.0,11.5,70,0.00,CLR,,0.00,WeatherDisplay:10.37,2013-01-21 05:08:00,
2013-01-20 23:13:00,9.1,1.6,30.13,WSW,257,4.5,11.5,71,0.00,CLR,,0.00,WeatherDisplay:10.37,2013-01-21 05:13:00,
2013-01-20 23:18:00,9.2,1.4,30.13,SW,233,0.9,3.5,70,0.00,CLR,,0.00,WeatherDisplay:10.37,2013-01-21 05:18:00,
2013-01-20 23:23:00,9.2,1.4,30.13,West,268,7.2,12.7,70,0.00,CLR,,0.00,WeatherDisplay:10.37,2013-01-21 05:23:00,
2013-01-20 23:28:00,9.1,1.0,30.13,WSW,251,6.4,11.5,69,0.00,CLR,,0.00,WeatherDisplay:10.37,2013-01-21 05:28:00,
2013-01-20 23:33:00,9.0,1.2,30.13,WSW,246,6.8,12.7,70,0.00,CLR,,0.00,WeatherDisplay:10.37,2013-01-21 05:33:00,
2013-01-20 23:38:00,8.8,1.0,30.13,WNW,289,7.0,13.8,70,0.00,CLR,,0.00,WeatherDisplay:10.37,2013-01-21 05:38:00,
2013-01-20 23:43:00,8.7,0.9,30.13,NW,313,6.8,11.5,70,0.00,CLR,,0.00,WeatherDisplay:10.37,2013-01-21 05:43:00,
2013-01-20 23:48:00,8.9,1.4,30.12,WSW,253,5.6,6.9,71,0.00,CLR,,0.00,WeatherDisplay:10.37,2013-01-21 05:48:00,
2013-01-20 23:53:00,8.8,1.3,30.12,WNW,289,4.9,8.1,71,0.00,CLR,,0.00,WeatherDisplay:10.37,2013-01-21 05:53:00,
2013-01-20 23:58:00,8.9,1.1,30.12,West,264,5.9,11.5,70,0.00,CLR,,0.00,WeatherDisplay:10.37,2013-01-21 05:58:00,